Regional Weather Roundup
Issued by NWS

Home | Current Version | Previous Version | Text Only | Print | Product List | Glossary On
Versions: 1 2 3 4 5 6 7 8 9 10 11 12 13 14 15 16 17 18 19 20 21 22 23 24 25 26 27 28 29 30 31 32 33 34 35 36 37 38 39 40 41 42 43 44 45 46 47 48 49 50
000
ASUS45 KBOI 270310
RWRID
WEATHER ROUNDUP FOR IDAHO
NATIONAL WEATHER SERVICE BOISE ID
900 PM MDT THU MAR 26 2015

NOTE: "FAIR" INDICATES FEW OR NO CLOUDS BELOW 12000 FEET
WITH NO SIGNIFICANT WEATHER AND/OR OBSTRUCTIONS TO VISIBILITY

IDZ012-014-270400-
SOUTHWEST IDAHO


CITY           SKY/WX    TMP DP  RH WIND       PRES   REMARKS
BOISE          CLEAR     59  37  44 W3        30.25S
CALDWELL       CLEAR     57  37  47 CALM      30.26S
MOUNTAIN HOME  CLEAR     53  40  60 NW7       30.25F
$$

IDZ016-017-270400-
SOUTHCENTRAL IDAHO


CITY           SKY/WX    TMP DP  RH WIND       PRES   REMARKS
BURLEY         CLEAR     46  34  62 S3        30.29R
JEROME         CLEAR     49  35  58 SE3       30.29R
TWIN FALLS     CLEAR     47  34  60 S7        30.29R
$$

IDZ019>023-270400-
SOUTHEAST IDAHO


CITY           SKY/WX    TMP DP  RH WIND       PRES   REMARKS
IDAHO FALLS    PTCLDY    53  33  46 S7        30.32R
POCATELLO      CLEAR     47  33  58 S9        30.32R
REXBURG        CLOUDY    52  32  46 S6        30.31R
$$

IDZ006-010-011-018-031-032-270400-
CENTRAL IDAHO MOUNTAINS


CITY           SKY/WX    TMP DP  RH WIND       PRES   REMARKS
MCCALL         CLEAR     47  39  74 NE6       30.29S
HAILEY         CLEAR     50  39  66 SE5       30.31R
STANLEY          N/A     38  30  73 SE5       30.36R WCI  34
SALMON         CLEAR    N/A N/A N/A CALM      30.28R
CHALLIS        CLEAR     53  33  46 W7        30.29R
$$

IDZ002-004-006-007-026-270400-
NORTHERN IDAHO


CITY           SKY/WX    TMP DP  RH WIND       PRES   REMARKS
LEWISTON       CLEAR     60  49  66 SE5       30.18S
LOWELL           N/A     50  48  93 N3        30.26R
COEUR D`ALENE  MOCLDY    52  43  71 E6        30.22F
MULLAN PASS    MOCLDY    42  37  82 SW7       30.30S
$$


USA.gov is the U.S. government's official web portal to all federal, state and local government web resources and services.